Location: Castelbiague
(43.0361°N, 0.9246°E)
Time: 19:57:01
(UTC+00:00)

Meteor 1-4 Rocket - Pass Details

Date: 21 October 2021
Orbit: 447 x 496 km, 81.2° (Epoch: 04 December)

Event Time Altitude Azimuth Distance (km) Brightness Sun altitude
Rises 19:55:15 0° 232° (SW) 2,477 6.6 -31.8°
Reaches altitude 10° 19:58:15 10° 261° (W) 1,598 5.9 -32.3°
Enters shadow 19:59:37 13° 284° (WNW) 1,422 5.7 -32.6°
